User: anonymous   Login
Location: Bellflower
(33.8817°N, 118.1170°W)
Time: 05:12:48
(UTC+00:00)
Language:

FALCON 9 DEB - Orbit

View from above orbital plane
View from above orbital plane
View from above satellite
View from above satellite

Ground track
Ground track

The orbit data is extracted from the following two-line orbital elements,

1 46084U 20055BK  21055.64934764  .00016150  00000-0  19278-3 0  9993
2 46084  53.0144  30.9370 0011288 232.2133 127.7858 15.61173180 36021
Epoch (UTC): 24 February 2021 15:35:03
Eccentricity: 0.0011288
inclination: 53.0144°
perigee height: 376 km
apogee height: 392 km
right ascension of ascending node: 30.9370°
argument of perigee: 232.2133°
revolutions per day: 15.61173180
mean anomaly at epoch: 127.7858°
orbit number at epoch: 3602

The dashed part of the orbit path shows where the satellite is in the earth's shadow,  

DLR